When you browse on this site, cookies collect data to enhance your experience and personalize the content and advertising you see.
Visit our Privacy Policy to learn more. By continuing to use the site, you agree to this use of cookies and data.

Hourly Weather Nesebyr

Today, 2 July, Thursday

Time Temperature Precipitation Wind Pressure Humidity
00:00 +23°C° 0 mm 1 mps 758 mmHg 95%
01:00 +23°C° 0 mm 1 mps 758 mmHg 95%
02:00 +23°C° 0 mm 1 mps 757 mmHg 96%
03:00 +23°C° 0 mm 1 mps 757 mmHg 96%
04:00 +23°C° 0 mm 1 mps 757 mmHg 96%
05:00 +23°C° 0 mm 1 mps 757 mmHg 95%
06:00 +24°C° 0 mm 2 mps 757 mmHg 91%
07:00 +25°C° 0 mm 2 mps 757 mmHg 86%
08:00 +26°C° 0 mm 3 mps 757 mmHg 82%
09:00 +28°C° 0 mm 3 mps 757 mmHg 75%
10:00 +29°C° 0 mm 4 mps 757 mmHg 68%
11:00 +30°C° 0 mm 4 mps 757 mmHg 61%
12:00 +30°C° 0 mm 4 mps 757 mmHg 60%
13:00 +32°C° 0 mm 4 mps 757 mmHg 59%
14:00 +32°C° 0 mm 4 mps 757 mmHg 57%
15:00 +30°C° 0 mm 4 mps 757 mmHg 59%
16:00 +30°C° 0 mm 4 mps 756 mmHg 60%
17:00 +29°C° 0 mm 4 mps 756 mmHg 62%
18:00 +27°C° 0 mm 4 mps 756 mmHg 69%
19:00 +25°C° 0 mm 3 mps 756 mmHg 76%
20:00 +22°C° 0 mm 3 mps 756 mmHg 83%
21:00 +23°C° 0 mm 2 mps 756 mmHg 85%
22:00 +21°C° 0 mm 2 mps 756 mmHg 87%
23:00 +22°C° 0 mm 1 mps 756 mmHg 90%

Tomorrow, 3 July, Friday

Time Temperature Precipitation Wind Pressure Humidity
00:00 +21°C° 0 mm 1 mps 756 mmHg 90%
01:00 +21°C° 0 mm 1 mps 756 mmHg 90%
02:00 +21°C° 0 mm 1 mps 756 mmHg 90%
03:00 +21°C° 0 mm 1 mps 756 mmHg 90%
04:00 +20°C° 0 mm 1 mps 755 mmHg 90%
05:00 +20°C° 0 mm 1 mps 755 mmHg 90%
06:00 +22°C° 0 mm 1 mps 755 mmHg 84%
07:00 +24°C° 0 mm 1 mps 755 mmHg 78%
08:00 +26°C° 0 mm 1 mps 756 mmHg 71%
09:00 +27°C° 0 mm 2 mps 756 mmHg 65%
10:00 +29°C° 0 mm 2 mps 756 mmHg 59%
11:00 +30°C° 0 mm 3 mps 756 mmHg 53%
12:00 +31°C° 0 mm 3 mps 756 mmHg 53%
13:00 +31°C° 0 mm 3 mps 755 mmHg 52%
14:00 +33°C° 0 mm 4 mps 755 mmHg 52%
15:00 +31°C° 0 mm 3 mps 755 mmHg 55%
16:00 +30°C° 0 mm 3 mps 755 mmHg 57%
17:00 +30°C° 0 mm 3 mps 755 mmHg 60%
18:00 +28°C° 0 mm 3 mps 755 mmHg 69%
19:00 +26°C° 0 mm 2 mps 755 mmHg 78%
20:00 +24°C° 0 mm 2 mps 755 mmHg 87%
21:00 +23°C° 0 mm 1 mps 755 mmHg 88%
22:00 +23°C° 0 mm 1 mps 756 mmHg 89%
23:00 +20°C° 0 mm 0 mps 756 mmHg 91%

Day after tomorrow, 4 July, Saturday

Time Temperature Precipitation Wind Pressure Humidity
00:00 +20°C° 0 mm 0 mps 756 mmHg 91%
01:00 +22°C° 0 mm 1 mps 756 mmHg 91%
02:00 +21°C° 0 mm 1 mps 756 mmHg 91%
03:00 +21°C° 0 mm 1 mps 756 mmHg 91%
04:00 +21°C° 0 mm 1 mps 756 mmHg 91%
05:00 +21°C° 0 mm 1 mps 756 mmHg 91%
06:00 +23°C° 0 mm 1 mps 756 mmHg 84%
07:00 +25°C° 0 mm 1 mps 756 mmHg 78%
08:00 +27°C° 0 mm 1 mps 756 mmHg 71%
09:00 +29°C° 0 mm 1 mps 756 mmHg 65%
10:00 +30°C° 0 mm 2 mps 756 mmHg 59%
11:00 +32°C° 0 mm 2 mps 756 mmHg 52%
12:00 +33°C° 0 mm 3 mps 756 mmHg 51%
13:00 +33°C° 0 mm 3 mps 756 mmHg 50%
14:00 +34°C° 0 mm 4 mps 756 mmHg 49%
15:00 +33°C° 0 mm 4 mps 756 mmHg 51%
16:00 +31°C° 0 mm 3 mps 755 mmHg 54%
17:00 +31°C° 0 mm 3 mps 755 mmHg 57%
18:00 +29°C° 0 mm 3 mps 755 mmHg 65%
19:00 +27°C° 0 mm 2 mps 755 mmHg 74%
20:00 +24°C° 0 mm 1 mps 755 mmHg 82%
21:00 +24°C° 0 mm 1 mps 755 mmHg 84%
22:00 +23°C° 0 mm 1 mps 756 mmHg 85%
23:00 +23°C° 0 mm 1 mps 756 mmHg 87%

5 July, Sunday

Time Temperature Precipitation Wind Pressure Humidity
00:00 +23°C° 0 mm 1 mps 756 mmHg 87%
01:00 +22°C° 0 mm 1 mps 755 mmHg 87%
02:00 +22°C° 0 mm 1 mps 755 mmHg 88%
03:00 +22°C° 0 mm 1 mps 755 mmHg 88%
04:00 +22°C° 0 mm 1 mps 755 mmHg 88%
05:00 +22°C° 0 mm 1 mps 755 mmHg 88%
06:00 +24°C° 0 mm 1 mps 755 mmHg 80%
07:00 +26°C° 0 mm 2 mps 755 mmHg 73%
08:00 +28°C° 0 mm 2 mps 755 mmHg 65%
09:00 +29°C° 0 mm 3 mps 755 mmHg 60%
10:00 +32°C° 0 mm 4 mps 755 mmHg 54%
11:00 +33°C° 0 mm 4 mps 755 mmHg 49%
12:00 +34°C° 0 mm 5 mps 755 mmHg 47%
13:00 +34°C° 0 mm 5 mps 755 mmHg 44%
14:00 +35°C° 0 mm 5 mps 754 mmHg 42%
15:00 +34°C° 0 mm 5 mps 754 mmHg 44%
16:00 +33°C° 0 mm 5 mps 754 mmHg 45%
17:00 +33°C° 0 mm 5 mps 754 mmHg 47%
18:00 +29°C° 0 mm 4 mps 754 mmHg 56%
19:00 +27°C° 0 mm 4 mps 754 mmHg 66%
20:00 +25°C° 0 mm 3 mps 754 mmHg 75%
21:00 +25°C° 0 mm 3 mps 754 mmHg 79%
22:00 +24°C° 0 mm 2 mps 755 mmHg 82%
23:00 +23°C° 0 mm 2 mps 755 mmHg 86%

6 July, Monday

Time Temperature Precipitation Wind Pressure Humidity
00:00 +23°C° 0 mm 2 mps 755 mmHg 85%
01:00 +23°C° 0 mm 2 mps 755 mmHg 85%
02:00 +23°C° 0 mm 2 mps 755 mmHg 85%
03:00 +23°C° 0 mm 2 mps 755 mmHg 84%
04:00 +21°C° 0 mm 2 mps 755 mmHg 84%
05:00 +21°C° 0 mm 2 mps 755 mmHg 83%
06:00 +24°C° 0 mm 3 mps 755 mmHg 75%
07:00 +26°C° 0 mm 3 mps 755 mmHg 67%
08:00 +28°C° 0 mm 3 mps 755 mmHg 58%
09:00 +30°C° 0 mm 4 mps 755 mmHg 56%
10:00 +32°C° 0 mm 5 mps 755 mmHg 53%
11:00 +34°C° 0 mm 6 mps 755 mmHg 51%
12:00 +34°C° 0 mm 6 mps 755 mmHg 51%
13:00 +34°C° 0 mm 7 mps 755 mmHg 51%
14:00 +35°C° 0 mm 7 mps 754 mmHg 52%
15:00 +34°C° 0 mm 7 mps 754 mmHg 54%
16:00 +33°C° 0 mm 6 mps 754 mmHg 56%
17:00 +32°C° 0 mm 6 mps 754 mmHg 57%
18:00 +29°C° 0 mm 5 mps 754 mmHg 66%
19:00 +28°C° 0 mm 4 mps 754 mmHg 75%
20:00 +26°C° 0 mm 3 mps 754 mmHg 84%
21:00 +25°C° 0 mm 2 mps 754 mmHg 84%
22:00 +25°C° 0 mm 2 mps 754 mmHg 84%
23:00 +24°C° 0 mm 2 mps 754 mmHg 84%

7 July, Tuesday

Time Temperature Precipitation Wind Pressure Humidity
00:00 +24°C° 0 mm 1 mps 754 mmHg 84%
01:00 +23°C° 0 mm 1 mps 754 mmHg 84%
02:00 +23°C° 0 mm 1 mps 753 mmHg 83%
03:00 +23°C° 0 mm 1 mps 753 mmHg 83%
04:00 +23°C° 0 mm 1 mps 753 mmHg 83%
05:00 +23°C° 0 mm 2 mps 753 mmHg 83%
06:00 +25°C° 0 mm 2 mps 753 mmHg 76%
07:00 +27°C° 0 mm 2 mps 753 mmHg 69%
08:00 +29°C° 0 mm 3 mps 753 mmHg 61%
09:00 +31°C° 0 mm 3 mps 753 mmHg 56%
10:00 +33°C° 0 mm 4 mps 753 mmHg 50%
11:00 +35°C° 0 mm 4 mps 753 mmHg 44%
12:00 +35°C° 0 mm 4 mps 752 mmHg 43%
13:00 +36°C° 0 mm 5 mps 752 mmHg 43%
14:00 +36°C° 0 mm 5 mps 752 mmHg 42%
15:00 +35°C° 0 mm 4 mps 752 mmHg 45%
16:00 +35°C° 0 mm 4 mps 751 mmHg 47%
17:00 +34°C° 0 mm 4 mps 751 mmHg 50%
18:00 +31°C° 0 mm 3 mps 751 mmHg 60%
19:00 +29°C° 0 mm 2 mps 751 mmHg 69%
20:00 +26°C° 0 mm 1 mps 751 mmHg 79%
21:00 +26°C° 0 mm 1 mps 751 mmHg 80%
22:00 +25°C° 0 mm 1 mps 752 mmHg 82%
23:00 +24°C° 0 mm 1 mps 752 mmHg 83%
Show more